Location: Unspecified
(0.0000°N, 0.0000°E)
Time: 13:35:49
(UTC+00:00)

Vanguard 3 - Pass Details

Date: 12 December 2017
Orbit: 508 x 3264 km, 33.4° (Epoch: 18 January)

Event Time Altitude Azimuth Distance (km) Brightness Sun altitude
Rises 04:31:48 0° 224° (SW) 7,231 11.8 -18.8°
Reaches altitude 10° 04:39:12 10° 209° (SSW) 6,067 11.5 -17.1°
Maximum altitude 04:51:24 21° 168° (SSE) 4,592 11.4 -14.3°
Drops below altitude 10° 05:00:52 10° 124° (SE) 4,640 12.4 -12.1°
Sets 05:05:18 0° 108° (ESE) 5,173 13.4 -11.1°
